Location: Praha
(50.0830°N, 14.4670°E)
Time: 15:14:12
(UTC+01:00)

ISS - Pass Details

Date: 21 November 2020
Orbit: 418 x 420 km, 51.6° (Epoch: 04 December)

Event Time Altitude Azimuth Distance (km) Brightness Sun altitude
Rises 17:18:27 0° 190° (S) 2,349 0.5 -10.7°
Reaches altitude 10° 17:21:50 10° 153° (SSE) 1,491 -1.1 -11.2°
Maximum altitude 17:22:50 11° 135° (SE) 1,430 -1.3 -11.4°
Enters shadow 17:23:50 10° 118° (ESE) 1,494 -1.4 -11.5°
